This demonstration page uses our WeatherBlox Daily Observations layout. Learn more.

41.55636, -103.73856

Hourly Observations for March 4, 2019

Temp ( °F °C ) Dew Point ( °F °C ) Humidity (%) Winds ( mph kmh ) Pressure ( in mb ) Visibility ( mi km ) Precip ( " mm )
12:58 am 00:58 Clear -8 -22.3 -13 -25.2 77 77 W 6 9 30.58 1036 10 16.0934 N/A
1:58 am 01:58 Clear -9 -22.9 -14 -25.7 78 78 W 9 15 30.61 1037 10 16.0934 N/A
2:58 am 02:58 Clear -12 -24.3 -17 -27.2 77 77 W 8 13 30.63 1037 10 16.0934 N/A
3:58 am 03:58 Clear -13 -24.9 -18 -27.5 79 79 W 10 17 30.61 1037 10 16.0934 N/A
4:58 am 04:58 Clear -12 -24.2 -17 -27 78 78 W 10 17 30.62 1037 10 16.0934 N/A
5:58 am 05:58 Clear -12 -24.2 -17 -27.1 77 77 WNW 13 20 30.6 1036 10 16.0934 N/A
6:58 am 06:58 Clear -11 -23.9 -16 -26.9 76 76 WNW 9 15 30.6 1036 10 16.0934 N/A
7:58 am 07:58 Clear -16 -26.6 -21 -29.7 75 75 WNW 8 13 30.62 1037 10 16.0934 N/A
8:58 am 08:58 Clear -8 -22.2 -13 -24.8 80 80 NW 15 24 30.58 1036 10 16.0934 N/A
9:58 am 09:58 Clear -8 -22.1 -13 -25.2 76 76 NW 18 30 30.54 1034 10 16.0934 N/A
10:58 am 10:58 Clear -11 -23.7 -18 -27.6 70 70 NW 9 15 30.56 1035 10 16.0934 N/A
11:58 am 11:58 Clear -9 -22.6 -17 -27.1 67 67 NNW 17 28 30.55 1035 10 16.0934 N/A
12:58 pm 12:58 Clear -9 -22.8 -17 -27.3 67 67 NW 17 28 30.57 1035 10 16.0934 N/A
1:58 pm 13:58 Sunny -14 -25.3 -20 -29.1 71 71 W 7 11 30.6 1036 10 16.0934 N/A
2:58 pm 14:58 Sunny -9 -22.5 -14 -25.4 77 77 W 10 17 30.59 1036 10 16.0934 N/A
3:58 pm 15:58 Sunny -1 -18.6 -8 -22.1 74 74 W 13 20 30.58 1036 10 16.0934 N/A
4:58 pm 16:58 Sunny 3 -15.9 -5 -20.6 67 67 WNW 14 22 30.54 1034 10 16.0934 N/A
5:58 pm 17:58 Sunny 5 -14.9 -4 -20 65 65 NW 10 17 30.53 1034 10 16.0934 N/A
6:58 pm 18:58 Sunny 7 -13.7 -3 -19.6 61 61 NNW 8 13 30.51 1033 10 16.0934 N/A
7:58 pm 19:58 Sunny 8 -13.1 -2 -18.9 62 62 N 6 9 30.51 1033 10 16.0934 N/A
8:58 pm 20:58 Sunny 11 -11.9 0 -17.6 63 63 W 10 17 30.45 1031 10 16.0934 N/A
9:58 pm 21:58 Sunny 12 -11.2 -1 -18.2 57 57 WNW 3 6 30.44 1031 10 16.0934 N/A
10:58 pm 22:58 Sunny 12 -10.9 1 -17.4 59 59 W 7 11 30.44 1031 10 16.0934 N/A
11:58 pm 23:58 Sunny 11 -11.5 2 -16.8 65 65 W 6 9 30.44 1031 10 16.0934 N/A

Powered by AerisWeather